Home > Weather > Catania > Past weeks

Flag for Italy Past Weather in Catania, Italy — Yesterday and Last 2 Weeks

Now
73 °F

Sunny.


Feels Like: 76 °F
Forecast: 58 / 79 °F
Wind: 13 mph from East

Location: Catania / Fontanarossa

Current Time: May 30, 2016 at 6:39:29 PM

Latest Report: May 30, 2016 at 5:50 PM


Visibility: 10 mi

Pressure: 29.92 "Hg

Humidity: 65%

Dew Point: 61 °F

Location of CataniaLocation

Past Weather in Catania — Graph

°F

Catania Temperature Yesterday

Maximum temperature yesterday: 81 °F (at 10:50 AM)
Minimum temperature yesterday: 63 °F (at 5:50 AM)
Average temperature yesterday: 70 °F

High & Low Weather Summary for the Past Weeks

 TemperatureHumidityPressure
High88 °F (May 23, 1:50 PM)94% (May 20, 12:20 AM)30.09 "Hg (May 20, 12:20 AM)
Low46 °F (May 25, 5:50 AM)10% (May 24, 10:50 AM)29.80 "Hg (May 20, 1:50 PM)
Average66 °F60%29.98 "Hg
* Reported May 15 4:50 PM — May 30 4:50 PM, Catania, Weather by CustomWeather, © 2016

Note: Actual official high and low records may vary slightly from our data, if they occured in-between our weather recording intervals... More about our weather records

Advertising

Catania Weather History for the Previous 24 Hours

Scroll right to see more
 ConditionsComfort  
Time TempWeatherWind HumidityBarometerVisibility
4:50 PM
Mon, May 30
75 °FSunny.15 mph57%29.92 "Hg10 mi
4:20 PM75 °FSunny.16 mph61%29.95 "Hg10 mi
3:50 PM75 °FSunny.16 mph61%29.95 "Hg10 mi
3:20 PM75 °FSunny.16 mph61%29.95 "Hg10 mi
2:50 PM75 °FSunny.16 mph61%29.95 "Hg10 mi
2:20 PM77 °FSunny.18 mph54%29.95 "Hg10 mi
1:50 PM77 °FSunny.21 mph47%29.95 "Hg10 mi
1:20 PM77 °FClear.20 mph51%29.95 "Hg5 mi
12:50 PM75 °FClear.20 mph57%29.95 "Hg5 mi
12:20 PM75 °FSunny.17 mph54%29.95 "Hg10 mi
11:50 AM75 °FSunny.15 mph50%29.95 "Hg10 mi
11:20 AM75 °FSunny.13 mph54%29.95 "Hg10 mi
10:50 AM75 °FSunny.10 mph54%29.95 "Hg10 mi
10:20 AM73 °FPassing clouds.7 mph57%29.95 "HgN/A
9:50 AM73 °FPassing clouds.5 mph61%29.95 "HgN/A
9:20 AM72 °FPassing clouds.6 mph69%29.95 "HgN/A
8:50 AM70 °FClear.6 mph73%29.92 "Hg6 mi
7:50 AM68 °FClear.3 mph78%29.92 "Hg5 mi
6:50 AM64 °FSunny.2 mph83%29.92 "Hg10 mi
6:20 AM64 °FPassing clouds.3 mph83%29.92 "HgN/A
5:50 AM64 °FPassing clouds.3 mph83%29.89 "HgN/A
5:20 AM64 °FPassing clouds.2 mph83%29.89 "HgN/A
4:50 AM64 °FPassing clouds.3 mph83%29.89 "HgN/A
4:20 AM66 °FPassing clouds.2 mph83%29.89 "HgN/A
3:50 AM66 °FPassing clouds.5 mph83%29.89 "HgN/A
3:20 AM66 °FPassing clouds.1 mph83%29.89 "HgN/A
2:50 AM66 °FPassing clouds.1 mph83%29.89 "HgN/A
2:20 AM66 °FPassing clouds.1 mph83%29.89 "HgN/A
1:50 AM66 °FPassing clouds.1 mph83%29.92 "HgN/A
1:20 AM66 °FPassing clouds.2 mph83%29.92 "HgN/A
12:50 AM66 °FPassing clouds.2 mph83%29.92 "HgN/A
12:20 AM68 °FPassing clouds.2 mph83%29.92 "HgN/A
11:50 PM
Sun, May 29
68 °FPassing clouds.No wind83%29.92 "HgN/A
11:20 PM68 °FPassing clouds.1 mph83%29.92 "HgN/A
10:50 PM68 °FLight rain. Passing clouds.2 mph83%29.92 "HgN/A
10:20 PM68 °FPassing clouds.3 mph83%29.92 "HgN/A
9:50 PM68 °FPassing clouds.1 mph88%29.92 "HgN/A
9:20 PM68 °FPassing clouds.3 mph88%29.89 "HgN/A
8:50 PM68 °FScattered clouds.7 mph83%29.89 "HgN/A
8:20 PM68 °FScattered clouds.7 mph83%29.89 "HgN/A
7:50 PM70 °FScattered clouds.6 mph78%29.86 "HgN/A
7:20 PM70 °FScattered clouds.7 mph78%29.86 "HgN/A
6:50 PM72 °FPassing clouds.7 mph73%29.86 "HgN/A
6:20 PM73 °FPassing clouds.6 mph61%29.86 "HgN/A
Weather by CustomWeather, © 2016

See weather overviewHow to use our weather pages